Dewpoint
34 31 29 28 27 26 26 25 24 24 24 24 27 27 24 25 24 24 24 24 24 24 24 25 25 25 26 26 27 28 29 30 29 29 30 30 30 30 30 32 32 32 32 37 35 36 36 37 37 37 37 38 38 39 40 41 42 42 42 42 41 41 42 42 41 40 39 37 35 33 32 30 31 31 32 32 33 33 33 34 35 36 36 38 39 40
31 30 30 29 27 26 26 26 25 24 24 24 25 26 25 28 24 25 25 25 25 25 26 27 27 27 27 27 28 29 29 28 29 29 30 30 30 31 32 33 33 32 35 35 34 33 35 36 38 37 37 37 38 38 39 40 41 41 41 41 41 41 40 39 38 36 35 34 33 31 30 30 30 30 30 30 30 31 33 32 32 33 33 34 35 35
30 29 29 29 29 26 25 26 25 24 25 26 25 26 27 26 28 26 25 25 25 26 26 27 27 26 26 27 29 29 28 28 29 29 29 29 30 30 31 32 32 33 33 32 32 33 35 37 37 36 36 36 36 37 38 39 40 40 40 40 40 39 39 38 37 36 34 33 33 31 30 30 29 29 30 30 30 30 29 29 30 30 30 31 31 32
30 30 29 29 28 27 25 25 25 25 27 26 28 28 26 30 29 28 28 27 27 26 27 27 27 27 27 29 29 30 29 31 32 32 33 32 30 30 30 31 32 32 32 32 32 31 32 34 35 35 35 35 36 36 36 37 38 38 38 39 38 37 36 35 34 33 32 31 31 31 30 29 29 27 28 27 27 27 27 27 27 27 28 28 28 29
29 30 30 28 30 27 26 26 25 25 25 30 30 29 28 30 29 30 28 27 26 27 29 27 29 29 29 28 29 30 30 30 31 31 31 32 33 32 33 33 32 31 32 31 31 31 32 32 33 34 34 35 36 36 36 36 36 37 38 38 37 35 33 32 32 31 31 30 30 29 29 28 27 26 25 24 22 23 24 24 25 25 26 26 26 27
30 30 34 28 31 29 29 26 28 31 26 28 31 29 29 29 29 31 31 28 29 29 29 29 27 27 28 28 29 29 29 29 29 29 29 29 31 30 30 31 32 33 31 31 31 31 31 32 33 34 34 35 34 34 34 35 35 36 36 36 36 36 35 33 32 32 31 30 29 28 26 25 24 22 22 21 20 19 20 21 23 25 24 25 25 25
30 32 35 33 32 33 31 30 31 31 29 30 30 32 30 30 32 33 32 31 28 27 29 29 27 25 26 27 28 29 28 28 28 29 28 28 28 29 29 30 30 31 30 30 30 30 31 32 33 33 33 33 32 32 33 33 33 34 34 34 34 33 33 34 32 32 31 30 29 27 26 25 23 21 22 20 19 19 18 20 20 22 24 24 24 25
33 31 35 36 33 35 33 29 33 31 31 30 37 37 33 32 32 33 32 32 30 32 33 28 28 25 24 22 28 28 28 27 28 28 29 28 28 28 28 29 30 30 30 31 30 30 30 31 31 30 30 29 30 31 32 32 32 32 31 31 30 29 29 30 30 30 29 28 27 26 25 23 21 21 20 19 18 20 19 18 17 18 19 22 24 23
32 34 35 35 34 33 32 33 35 34 32 34 36 36 34 31 32 33 32 30 30 29 27 26 31 23 22 26 27 28 27 27 27 27 28 28 28 27 28 29 30 29 30 30 30 29 29 28 28 28 28 28 29 31 31 30 30 30 29 29 28 27 27 28 28 28 27 26 26 24 23 22 22 21 21 20 20 20 20 20 20 18 17 18 22 25
34 36 35 35 34 31 35 33 35 36 32 37 36 35 34 35 34 33 30 30 29 27 26 26 28 22 21 24 26 28 27 26 27 27 27 28 28 28 28 28 29 28 29 29 29 28 28 27 27 26 26 27 29 28 30 29 29 29 28 27 26 26 26 26 27 27 27 26 24 24 24 23 21 20 19 20 20 21 21 20 20 20 18 17 17 20
32 33 37 35 34 36 32 32 36 37 35 36 35 34 33 33 32 31 31 29 27 25 25 27 29 25 22 23 21 28 26 23 25 27 27 28 29 28 28 28 29 27 28 27 27 27 27 26 25 25 25 25 27 28 28 30 29 28 27 26 25 24 25 25 26 26 26 26 25 25 24 24 23 22 22 21 20 19 19 18 18 18 19 18 17 18
33 34 36 36 34 34 34 35 34 35 37 36 33 32 31 29 28 28 27 29 25 25 27 26 27 28 22 20 25 24 26 25 27 26 26 27 27 27 28 27 27 27 27 27 26 26 25 24 24 23 23 24 25 26 28 29 29 28 27 25 25 25 25 25 25 26 26 25 26 26 26 24 23 22 22 21 21 21 20 19 17 17 17 16 19 18
35 34 35 37 36 34 36 34 32 34 34 36 32 31 29 29 27 26 27 25 25 26 23 24 30 27 25 21 20 25 24 25 26 26 27 27 27 28 28 27 27 27 27 27 26 26 25 25 24 23 22 23 24 26 27 28 28 26 25 24 24 24 24 24 25 25 25 25 24 24 24 24 23 23 23 21 21 22 20 20 19 19 17 17 20 18
33 37 35 37 34 35 36 32 29 30 30 31 31 30 29 27 25 24 26 26 25 25 22 21 28 24 23 24 23 21 25 26 29 30 29 28 27 27 28 27 26 27 27 27 27 26 25 25 24 22 22 23 24 24 25 26 26 25 25 24 23 23 23 23 23 22 23 23 23 22 23 22 22 23 23 21 21 21 20 22 20 19 18 19 19 19
30 32 34 35 32 35 35 34 32 32 30 30 34 32 30 29 27 24 24 23 23 23 19 24 23 22 22 21 27 26 26 28 28 29 31 29 29 29 27 27 27 27 26 27 26 26 25 25 23 23 22 23 23 23 25 25 26 25 24 24 23 23 23 23 24 24 24 24 24 24 24 23 22 22 22 22 24 21 22 21 21 20 19 18 18 18
33 31 35 37 38 34 35 36 35 34 32 31 33 34 30 30 30 24 24 23 23 20 20 22 22 21 21 27 28 27 26 27 28 29 30 28 28 29 27 27 27 26 26 27 26 26 24 24 23 22 23 23 22 22 24 24 26 26 24 22 22 22 23 23 23 23 23 23 23 24 23 23 23 22 22 24 24 22 22 22 21 21 20 20 19 20
34 31 35 36 35 32 33 37 35 35 29 31 32 29 31 31 28 23 26 27 25 21 20 24 20 23 21 23 25 26 25 26 27 28 28 28 28 29 28 28 27 27 26 27 27 25 24 23 23 23 22 22 21 23 24 25 26 25 24 22 22 22 23 23 23 24 23 24 25 24 23 24 24 24 24 24 24 24 24 23 22 21 21 21 21 24
31 32 32 35 33 33 33 35 36 36 35 31 28 30 34 33 32 26 23 23 21 19 21 23 22 19 21 20 26 26 25 25 26 27 27 29 29 28 29 29 28 28 27 27 26 25 23 22 22 22 23 22 21 23 23 24 26 25 25 22 22 22 22 23 23 23 24 23 24 25 25 25 25 24 24 25 24 24 24 24 22 21 21 21 22 21
35 29 31 34 34 34 33 34 32 35 35 31 30 37 29 27 26 26 24 21 21 20 21 21 21 21 21 24 22 24 24 24 25 27 27 28 28 29 29 28 28 28 27 27 25 25 23 23 22 22 21 21 21 22 22 24 26 26 24 22 22 22 22 23 24 24 25 26 27 27 25 25 24 24 24 25 24 25 24 23 22 22 21 20 18 17
36 31 30 32 32 32 32 32 29 29 33 34 33 31 34 27 28 26 25 26 22 21 22 23 22 21 27 23 21 21 23 25 25 27 27 28 28 28 29 29 28 28 27 27 26 25 24 23 22 22 21 20 20 22 22 24 26 24 23 22 21 22 23 23 24 24 25 27 26 26 25 25 24 24 24 24 23 22 22 21 21 20 19 17 16 17
30 32 28 30 33 31 28 30 30 30 28 27 27 26 29 29 29 27 27 24 22 21 21 21 20 23 25 22 22 22 21 24 26 27 29 29 29 29 29 30 29 28 28 28 26 25 24 23 21 22 21 21 21 22 22 24 24 24 23 22 22 22 22 24 24 25 27 27 26 25 24 24 24 24 23 23 22 21 21 20 20 18 17 16 16 16
31 29 29 28 28 28 29 35 34 36 31 29 27 27 27 27 25 24 23 27 25 22 21 20 20 25 28 24 21 22 22 25 28 28 29 29 29 29 30 30 30 29 28 28 27 25 25 23 22 21 21 22 22 22 22 23 23 23 22 22 22 23 24 24 24 25 26 26 25 25 24 23 23 23 23 22 21 21 20 19 18 17 16 15 16 15
36 35 29 28 28 29 32 33 34 33 33 34 29 28 29 27 27 24 22 24 25 24 26 23 20 21 28 28 27 26 26 24 28 29 30 30 30 30 30 30 30 29 29 28 27 25 25 23 21 21 21 21 21 22 21 22 23 23 22 23 23 23 24 24 25 25 25 25 24 24 23 22 22 22 21 21 20 19 18 17 16 16 15 13 14 13
34 31 28 29 31 32 30 32 34 33 33 31 31 32 30 26 27 26 25 27 24 24 22 22 21 24 26 29 28 27 29 29 29 30 30 30 30 30 31 31 30 30 29 29 27 26 25 23 22 21 21 22 20 21 21 22 22 22 22 23 23 23 24 25 26 25 25 25 24 23 22 21 21 20 19 17 17 16 16 14 14 13 13 13 13 12
31 31 31 29 28 28 28 29 29 32 31 28 27 30 32 32 33 30 28 26 24 26 25 22 21 24 24 30 29 27 26 26 25 27 30 31 31 31 30 31 31 30 29 27 27 26 25 23 21 21 22 21 20 20 20 21 22 22 22 23 23 24 24 25 25 24 24 24 22 21 19 19 19 18 17 16 16 16 14 13 11 10 9 8 8 9
33 32 30 28 26 25 24 24 25 27 27 28 29 30 31 32 31 27 25 25 23 26 28 23 22 26 24 26 26 27 26 25 26 27 27 31 31 30 31 31 31 30 29 27 27 26 25 24 23 23 22 21 19 18 19 21 22 22 22 22 24 23 24 24 24 24 23 22 20 19 18 17 16 15 14 13 13 13 11 9 8 7 7 6 8 5
32 33 32 32 30 27 27 28 29 31 27 27 27 29 30 32 31 30 27 25 23 26 25 26 25 25 23 24 25 25 26 25 24 26 27 28 30 31 31 32 31 30 29 27 27 27 26 25 23 23 22 21 19 18 19 20 21 21 21 21 22 22 23 24 24 23 21 20 18 16 15 14 13 13 12 11 9 8 6 3 3 2 2 3 2 0
32 31 33 32 32 31 28 29 30 32 28 28 28 28 30 30 30 29 26 25 29 25 23 27 27 26 25 24 25 27 27 26 25 26 26 27 29 31 31 31 32 29 29 28 27 26 26 25 25 24 22 21 20 19 20 20 20 20 20 21 22 21 24 26 22 20 19 17 16 15 14 13 12 11 11 9 7 4 2 1 0 1 1 1 1 0
33 32 33 33 32 32 30 31 31 30 31 30 29 29 29 30 29 28 28 28 31 26 25 28 29 28 26 25 26 27 27 25 25 26 26 27 29 30 30 30 30 29 28 28 27 27 26 26 26 25 23 22 20 18 18 18 18 18 20 21 21 22 22 22 20 18 17 16 15 15 13 12 11 10 9 6 4 2 1 1 0 1 1 1 1 1
34 32 33 34 32 32 30 30 31 30 28 28 30 30 30 30 29 28 28 29 30 29 30 30 32 30 28 27 27 27 28 27 26 27 28 28 30 30 30 29 29 29 28 28 28 27 27 27 26 25 25 22 20 18 17 18 18 18 20 20 20 20 21 20 18 17 16 15 14 14 12 10 10 8 7 4 2 1 1 0 1 1 2 3 1 1
35 31 34 33 32 32 31 30 31 31 30 30 30 30 30 30 29 30 29 30 31 30 31 31 30 30 32 29 29 31 30 29 28 26 26 28 29 29 29 29 29 29 29 28 28 28 28 27 27 26 25 24 20 18 17 18 18 19 18 19 19 19 20 20 18 17 16 15 14 12 10 9 8 6 5 4 2 2 4 3 2 4 4 5 4 3
34 32 32 33 31 30 29 30 30 30 30 30 30 31 30 29 28 28 29 30 30 30 31 30 29 30 32 37 31 30 29 28 27 27 26 29 29 29 29 29 30 30 30 29 29 29 28 28 27 26 25 25 22 19 18 18 18 17 17 18 18 18 19 19 18 18 17 16 13 12 10 9 8 7 7 7 6 6 12 8 10 10 11 8 7 6
33 32 30 31 29 29 26 30 29 29 29 27 28 30 31 30 30 30 30 31 31 31 30 29 29 36 33 30 28 28 28 28 28 27 29 29 30 30 29 29 30 31 31 30 30 30 30 28 28 27 26 25 23 21 19 18 17 17 18 17 18 18 19 19 18 18 18 16 13 11 9 9 9 10 11 13 13 13 12 12 11 12 11 10 10 4
33 32 30 32 28 25 24 29 30 28 21 22 35 35 32 28 28 27 26 28 29 29 30 35 35 32 30 29 29 28 28 28 29 30 31 30 31 31 29 29 30 30 30 31 31 30 30 30 29 28 27 26 25 21 19 18 17 17 17 17 18 18 18 19 19 18 18 15 14 11 10 12 16 16 15 14 14 11 12 11 12 12 11 9 9 7
32 32 31 32 27 23 26 28 26 20 21 31 31 31 33 30 29 28 28 29 30 30 29 30 29 30 30 30 30 30 29 29 30 28 28 28 34 31 30 28 29 29 29 30 30 30 31 31 30 29 28 26 25 24 21 18 15 18 17 18 18 18 19 19 19 18 17 16 13 13 14 13 15 15 14 14 13 12 11 11 11 10 10 9 10 10
32 32 31 30 27 25 23 25 19 17 28 28 25 21 26 24 27 29 29 29 29 29 29 28 28 29 29 29 29 30 25 20 22 23 25 23 27 29 28 28 27 27 28 28 29 30 30 30 30 29 28 27 26 24 22 19 16 18 19 20 20 19 19 20 20 18 16 16 14 14 13 15 16 16 14 12 11 11 11 11 11 10 9 8 7 7
34 33 31 27 29 21 22 24 23 28 25 27 23 20 21 21 22 26 25 26 29 29 29 28 29 29 29 29 27 21 20 22 22 24 23 22 25 25 26 24 25 26 27 28 29 29 30 31 30 30 29 27 25 23 21 21 20 20 20 21 22 20 21 21 20 17 17 17 14 13 13 14 15 15 13 12 11 12 12 12 11 9 8 8 8 8
34 32 32 28 27 27 23 22 22 22 20 23 27 25 22 23 24 25 24 24 27 29 30 29 29 29 28 26 22 20 25 23 24 24 25 23 24 26 24 29 27 28 26 28 27 26 25 25 26 27 27 27 26 24 22 22 22 22 22 22 20 20 19 21 21 18 17 16 14 13 12 13 17 17 14 13 12 12 12 11 10 9 7 7 7 7
31 32 31 31 28 27 25 22 21 19 21 26 24 21 23 25 24 26 23 21 27 30 30 30 29 29 29 26 21 23 25 24 24 24 27 21 22 23 23 23 22 24 25 25 23 21 21 21 22 24 25 25 25 25 23 23 24 22 23 22 20 21 20 21 19 18 17 15 13 12 13 16 17 17 15 14 13 12 11 10 8 8 5 5 6 5
29 29 30 28 27 28 25 23 21 23 23 25 19 18 19 21 24 25 17 17 25 28 29 29 28 28 28 26 22 24 26 23 24 23 17 21 22 23 22 21 20 20 20 20 20 20 21 21 22 22 24 24 24 24 23 24 24 24 22 21 19 20 19 19 19 18 16 14 13 14 16 17 15 16 14 14 12 11 10 8 6 6 4 4 4 3
26 26 28 25 26 27 28 25 25 26 29 27 20 17 17 23 23 19 16 16 22 25 25 29 29 28 28 25 23 25 25 25 23 18 18 15 14 15 17 17 18 18 18 18 19 23 21 21 21 22 24 23 23 24 23 25 24 25 24 21 20 20 21 19 18 17 15 13 14 14 14 15 14 13 12 13 10 8 7 5 6 5 4 3 2 2
25 26 26 27 26 25 26 25 24 26 30 27 17 18 20 22 17 17 21 13 23 24 24 27 28 28 24 23 21 22 23 26 15 12 13 13 13 14 14 13 13 14 15 18 23 21 21 21 22 22 23 24 22 23 25 24 25 24 22 21 20 19 19 18 16 15 15 16 15 14 13 12 11 10 9 8 7 6 5 5 6 5 3 1 2 2
24 24 21 24 26 26 26 24 23 20 27 24 20 16 17 21 20 16 12 13 24 24 22 22 24 23 21 19 21 22 19 14 12 10 11 13 12 12 13 13 13 13 15 17 21 22 21 21 21 22 22 22 22 23 24 24 24 24 24 22 20 20 18 18 16 15 16 15 14 12 11 10 8 6 5 4 5 5 4 2 1 1 1 1 0 -0
26 23 22 23 26 22 22 21 21 24 22 23 23 21 20 21 18 14 16 20 15 18 20 21 19 22 20 19 17 17 16 14 13 12 11 12 11 11 13 13 13 13 15 17 18 22 26 22 22 22 22 21 22 22 23 24 24 24 23 22 20 21 20 19 17 17 16 14 13 11 8 6 5 4 2 3 3 3 3 1 0 -1 -1 -0 -1 -1
26 25 25 22 27 25 22 24 21 20 23 23 25 23 21 25 23 21 18 18 16 15 18 17 18 20 18 17 16 15 15 14 13 13 12 11 11 11 11 13 13 14 14 16 17 23 25 23 23 23 22 19 21 20 23 24 24 23 23 22 22 22 20 18 17 16 14 13 11 8 6 4 3 2 1 1 1 1 1 0 -1 -1 -1 -1 -1 -0
17 22 20 22 22 17 15 16 18 19 21 23 22 23 22 22 20 19 17 14 15 17 16 15 15 16 17 17 18 15 16 15 14 14 14 14 12 11 12 12 14 14 15 17 19 23 24 23 24 25 23 19 19 19 20 22 24 23 23 22 22 22 19 17 14 14 13 11 8 6 3 2 1 0 0 0 -0 0 -0 -1 -2 -1 -1 -2 -2 -2
16 15 19 19 20 20 18 15 18 21 19 22 20 21 20 17 20 17 15 18 18 19 15 16 15 13 16 21 19 16 14 14 15 14 15 14 14 13 13 14 13 15 17 19 18 23 23 23 23 24 24 22 18 19 20 20 22 24 23 21 21 20 17 14 13 12 11 9 7 4 3 2 -1 -2 -2 -2 -2 -2 -1 -1 -2 -1 -1 -2 -2 -2
18 17 17 19 19 18 17 13 16 11 12 15 20 21 21 20 20 18 19 18 16 14 14 14 16 16 18 20 19 17 16 15 15 14 15 15 15 15 15 15 15 16 17 19 20 24 22 23 23 23 23 23 21 18 19 20 20 22 22 19 19 17 15 13 12 12 10 8 5 2 1 1 -0 -1 -3 -3 -2 -3 -3 -2 -2 -1 -2 -1 -1 -2
20 18 14 19 17 15 9 10 11 10 11 14 16 16 19 22 22 19 17 16 16 15 14 14 14 13 16 15 16 18 20 17 16 16 16 15 15 15 16 15 16 18 18 20 23 23 22 22 22 22 22 22 23 21 19 18 19 20 20 18 15 13 13 12 10 10 8 6 4 2 0 1 -0 -1 -1 -2 -2 -2 -1 -2 -2 -1 -1 0 -0 -1
16 16 15 15 14 14 14 11 10 11 12 11 14 16 17 18 19 18 17 18 17 17 17 15 16 15 15 15 15 17 22 19 17 17 17 16 15 15 16 16 16 17 17 20 22 23 22 22 22 22 22 22 22 22 20 18 18 18 19 16 13 12 12 11 9 8 7 4 3 2 -0 -0 -0 1 0 -1 -2 -2 -2 0 4 2 -1 -1 3 6
16 17 14 16 17 15 14 12 13 14 13 15 16 17 16 14 16 17 17 17 17 18 18 18 18 16 17 17 15 16 17 16 16 17 18 16 16 16 15 16 16 16 17 19 20 21 21 21 21 21 21 22 21 21 21 20 18 16 16 14 12 11 11 10 7 7 5 3 3 2 -0 0 -0 0 -1 -1 -2 -2 -3 -3 2 11 9 6 5 8